| time (UTC) | temp C | wind direction | speed KPH | gust KPH | rain 1hr cm | rain 24hr cm | rain mn cm | humidity % | barometer mb |
| 20260504081513 | 3 | 252 | 20.9 | 49.9 | 0.03 | 2.11 | 0.41 | 93 | 980.3 |
| 20260504044534 | 3 | 178 | 20.9 | 48.3 | 0.08 | 1.93 | 0.23 | 94 | 975.8 |
| 20260504043032 | 3 | 161 | 20.9 | 45.1 | 0.10 | 1.93 | 0.23 | 94 | 975.6 |
| 20260504041534 | 3 | 142 | 17.7 | 46.7 | 0.15 | 1.91 | 0.20 | 94 | 975.4 |
| 20260504040031 | 3 | 180 | 19.3 | 51.5 | 0.20 | 1.91 | 0.20 | 94 | 975.8 |
| 20260504034537 | 3 | 121 | 17.7 | 35.4 | 0.23 | 1.85 | 0.15 | 94 | 976.6 |
| 20260504033026 | 3 | 130 | 14.5 | 45.1 | 0.23 | 1.83 | 0.13 | 94 | 977.5 |
| 20260504031514 | 3 | 121 | 17.7 | 35.4 | 0.25 | 1.75 | 0.05 | 93 | 978.3 |
| 20260504030011 | 3 | 130 | 11.3 | 35.4 | 0.25 | 1.70 | 0.00 | 93 | 979.1 |
| 20260504024508 | 3 | 144 | 12.9 | 40.2 | 0.25 | 1.65 | 1.65 | 93 | 980.0 |
| 20260504023004 | 3 | 360 | 12.9 | 33.8 | 0.28 | 1.57 | 1.57 | 93 | 980.7 |
| 20260504021502 | 3 | 76 | 9.7 | 27.4 | 0.28 | 1.50 | 1.50 | 94 | 981.6 |
| 20260504020106 | 4 | 121 | 12.9 | 29.0 | 0.28 | 1.42 | 1.42 | 94 | 982.2 |
| 20260504014554 | 4 | 360 | 9.7 | 24.1 | 0.30 | 1.37 | 1.37 | 94 | 982.9 |
| 20260504013056 | 5 | 360 | 9.7 | 22.5 | 0.28 | 1.30 | 1.30 | 95 | 983.5 |
| 20260504011554 | 5 | 148 | 8.0 | 29.0 | 0.28 | 1.22 | 1.22 | 95 | 984.1 |
| 20260504010052 | 5 | 130 | 11.3 | 24.1 | 0.28 | 1.14 | 1.14 | 95 | 984.4 |
| 20260504004546 | 5 | 98 | 16.1 | 30.6 | 0.30 | 1.09 | 1.09 | 96 | 984.4 |
| 20260504003047 | 3 | 46 | 8.0 | 24.1 | 0.28 | 0.99 | 0.99 | 95 | 984.9 |
| 20260504001557 | 3 | 360 | 16.1 | 30.6 | 0.28 | 0.94 | 0.94 | 95 | 985.4 |
| 20260504000038 | 3 | 360 | 12.9 | 32.2 | 0.28 | 0.86 | 0.86 | 95 | 985.8 |
| 20260503234535 | 3 | 96 | 19.3 | 35.4 | 0.25 | 0.79 | 0.79 | 95 | 986.7 |
| 20260503233034 | 3 | 360 | 19.3 | 37.0 | 0.25 | 0.71 | 0.71 | 95 | 987.4 |
| 20260503231543 | 3 | 63 | 20.9 | 45.1 | 0.25 | 0.64 | 0.64 | 95 | 988.4 |
| 20260503230028 | 3 | 92 | 19.3 | 33.8 | 0.23 | 0.58 | 0.58 | 95 | 989.1 |
| 20260503224524 | 3 | 90 | 12.9 | 30.6 | 0.23 | 0.51 | 0.51 | 95 | 989.7 |
| 20260503223024 | 3 | 66 | 17.7 | 30.6 | 0.23 | 0.46 | 0.46 | 95 | 990.8 |
| 20260503221517 | 2 | 106 | 17.7 | 37.0 | 0.18 | 0.38 | 0.38 | 95 | 991.9 |
| 20260503220017 | 2 | 96 | 14.5 | 37.0 | 0.18 | 0.33 | 0.33 | 95 | 993.2 |
| 20260503214513 | 2 | 67 | 11.3 | 37.0 | 0.15 | 0.28 | 0.28 | 95 | 993.9 |
| 20260503213009 | 2 | 42 | 11.3 | 29.0 | 0.15 | 0.23 | 0.23 | 94 | 994.4 |
| 20260503211509 | 2 | 95 | 19.3 | 32.2 | 0.15 | 0.20 | 0.20 | 94 | 994.9 |
| 20260503210003 | 2 | 360 | 14.5 | 38.6 | 0.13 | 0.15 | 0.15 | 94 | 995.9 |
| 20260503204621 | 2 | 64 | 17.7 | 40.2 | 0.10 | 0.13 | 0.13 | 94 | 996.0 |
| 20260503203109 | 2 | 76 | 14.5 | 30.6 | 0.08 | 0.10 | 0.10 | 94 | 997.0 |
| 20260503201554 | 2 | 69 | 17.7 | 35.4 | 0.05 | 0.05 | 0.05 | 94 | 997.4 |
| 20260503200051 | 1 | 49 | 14.5 | 30.6 | 0.03 | 0.05 | 0.05 | 93 | 998.6 |
| 20260503194547 | 1 | 81 | 12.9 | 30.6 | 0.00 | 0.03 | 0.03 | 93 | 999.6 |
| 20260503193045 | 2 | 360 | 16.1 | 27.4 | 0.00 | 0.03 | 0.03 | 93 | 1000.8 |
| 20260503191557 | 2 | 37 | 14.5 | 33.8 | 0.03 | 0.03 | 0.03 | 92 | 1001.2 |
| 20260503190045 | 3 | 360 | 14.5 | 24.1 | 0.03 | 0.03 | 0.03 | 92 | 1001.7 |
| 20260503184546 | 3 | 344 | 12.9 | 30.6 | 0.03 | 0.03 | 0.03 | 92 | 1001.8 |
| 20260503183043 | 4 | 73 | 9.7 | 20.9 | 0.03 | 0.03 | 0.03 | 91 | 1002.8 |
| 20260503181533 | 4 | 48 | 9.7 | 24.1 | 0.00 | 0.00 | 0.00 | 90 | 1003.9 |
| 20260503180034 | 4 | 77 | 9.7 | 25.7 | 0.00 | 0.00 | 0.00 | 89 | 1004.7 |
| 20260503174537 | 4 | 60 | 9.7 | 25.7 | 0.00 | 0.00 | 0.00 | 87 | 1005.5 |
| 20260503173026 | 4 | 67 | 8.0 | 20.9 | 0.00 | 0.00 | 0.00 | 85 | 1006.1 |
| 20260503171528 | 5 | 360 | 11.3 | 19.3 | 0.00 | 0.00 | 0.00 | 84 | 1007.2 |